World > North America > United States > Texas

South Bend, Texas Regional Weather

Lat: 33.00N, Lon: 98.67W
Wx Zone: TXZ100Web Search
South Bend Weather Warning NWS WEATHER ALERT FOR THE SOUTH BEND, TX AREA - Issued: 540 AM CDT Wed Apr 14 2021 South Bend Weather Warning  

Helpful Tip: Type the letters wx in the search engine next time you need to find us.

Feedback


°F Click to change South Bend hourly weather to Imperial units.Click to change South Bend hourly weather to Metric units. °C
South Bend Weather Map
UTC Time: 4/14/2021, 11:20
Your Time:

South Bend, TX Regional Weather

Expires:202104141200;;535919
ASUS44 KFWD 141115
RWRTX 
NORTH TEXAS HOURLY WEATHER ROUNDUP
NATIONAL WEATHER SERVICE FORT WORTH TX
600 AM CDT WED APR 14 2021

NOTE: "FAIR" INDICATES FEW OR NO CLOUDS BELOW 12,000 FEET WITH NO
SIGNIFICANT WEATHER AND/OR OBSTRUCTIONS TO VISIBILITY.


TXZ083>090-098>101-113>116-127>130-139>142-154-155-141200-
WESTERN NORTH TEXAS
  
CITY           SKY/WX    TMP DP  RH WIND       PRES   REMARKS
WICHITA FALLS  CLOUDY    49  48  97 N15       30.10S                  
WF-KICKAPOO    MOCLDY    50  47  90 N10       30.11S                  
VERNON         CLOUDY    50  48  93 NE8       30.13S                  
ABILENE        CLOUDY    52  45  77 N9        30.08R                  
ABILENE-DYESS  CLOUDY    51  43  72 N13       30.07R                  
BRECKENRIDGE   FAIR      52  46  79 N7        30.06F                  
CISCO          CLOUDY    50  46  87 N12G17    30.03F                  
EASTLAND       FAIR      50  45  83 N8        30.06R                  
RANGER         FAIR      51  45  79 N10G17    30.05R                  
MINERAL WELLS  CLOUDY    52  46  80 N13       30.04R                  
STEPHENVILLE   CLOUDY    57  44  61 N15       30.05R                  
COMANCHE       CLOUDY    57  48  70 N12       30.04R                  
BROWNWOOD      CLOUDY    57  45  62 N12       30.04R                  
COLEMAN        CLOUDY    54  45  70 N13       30.05R                  
BRADY          CLOUDY    57  43  58 N14       30.02R                  
$$


SKY/WX - Weather  TMP - Temperature  DP - Dew Point  RH - Relative Humidity
WIND - Wind Direction/Speed PRES - Barometric Pressure VSB - Visibility
WCI - Wind Chill Index E13G22 Wind - East Wind 13 mph/Gusts of 22 mph